Regional Weather Roundup
Issued by NWS

Home | Current Version | Previous Version | Text Only | Print | Product List | Glossary Off
Versions: 1 2 3 4 5 6 7 8 9 10 11 12 13 14 15 16 17 18 19 20 21 22 23 24 25 26 27

000
ASUS45 KBOI 201510
RWRID

IDAHO REGIONAL WEATHER ROUNDUP
NATIONAL WEATHER SERVICE BOISE ID
900 AM MDT WED SEP 20 2017

NOTE: "FAIR" INDICATES FEW OR NO CLOUDS BELOW 12000 FEET
WITH NO SIGNIFICANT WEATHER AND/OR OBSTRUCTIONS TO VISIBILITY

IDZ012-014-201600-
SOUTHWEST IDAHO


CITY           SKY/WX    TMP DP  RH WIND       PRES   REMARKS
BOISE          CLOUDY    54  33  45 SE16      29.73F
CALDWELL       CLOUDY    50  39  66 E13       29.71S
MOUNTAIN HOME  PTSUNNY   47  38  71 E15       29.76F
$$

IDZ016-017-201600-
SOUTHCENTRAL IDAHO


CITY           SKY/WX    TMP DP  RH WIND       PRES   REMARKS
BURLEY         PTSUNNY   51  29  42 S17G25    29.81F
JEROME         CLOUDY    48  35  60 SE8       29.80F
TWIN FALLS     CLOUDY    51  30  44 S15       29.82F
$$

IDZ019>023-201600-
SOUTHEAST IDAHO


CITY           SKY/WX    TMP DP  RH WIND       PRES   REMARKS
IDAHO FALLS    MOSUNNY   49  31  49 S18       29.84F
POCATELLO      MOSUNNY   51  33  50 S15       29.84F
REXBURG        PTSUNNY   46  31  55 S14G22    29.83S
$$

IDZ006-010-011-018-031-032-201600-
CENTRAL IDAHO MOUNTAINS


CITY           SKY/WX    TMP DP  RH WIND       PRES   REMARKS
MCCALL         CLOUDY    41  38  89 S9        29.66F
HAILEY         PTSUNNY   37  34  87 CALM      29.86S
STANLEY          N/A     35  34  96 S6        29.77R WCI  30
SALMON         LGT RAIN  44  36  73 S5        29.69R
CHALLIS        CLOUDY    45  31  58 S10       29.70F
$$

IDZ002-004-006-007-026-201600-
NORTHERN IDAHO


CITY           SKY/WX    TMP DP  RH WIND       PRES   REMARKS
LEWISTON       LGT RAIN  48  44  86 SE8       29.62F
LOWELL           N/A     44  42  93 CALM      29.68F
COEUR D`ALENE  CLOUDY    45  41  86 CALM      29.63F
MULLAN PASS    SNOW      30  29  96 CALM      29.59S VSB 1/4
$$




USA.gov is the U.S. government's official web portal to all federal, state and local government web resources and services.